Weather History for Dothan, AL

Change the Weather History Date:

Friday, October 25, 2013

  Actual Average Record
Temperature  
Mean Temperature 53 °F 65 °F  
Max Temperature 65 °F 77 °F 90 °F (1949)
Min Temperature 41 °F 52 °F 38 °F (1962)
Degree Days  
Heating Degree Days 12 3  
Month to date heating degree days 23 33  
Since 1 July heating degree days 23 35  
Cooling Degree Days 0 3  
Month to date cooling degree days 140 119  
Year to date cooling degree days 2278 2347  
Growing Degree Days 4 (Base 50)    
Moisture  
Dew Point 37 °F    
Average Humidity 59    
Maximum Humidity 93    
Minimum Humidity 24    
Precipitation  
Precipitation 0.00 in 0.10 in 0.73 in (1967)
Month to date precipitation 0.48 2.72  
Year to date precipitation 66.69 44.70  
Sea Level Pressure  
Sea Level Pressure 30.33 in    
Wind  
Wind Speed 6 mph (North)    
Max Wind Speed 12 mph    
Max Gust Speed 20 mph    
Visibility 10 miles    
Events      
T = Trace of Precipitation, MM = Missing Value Source: NWS Daily Summary

Daily Weather History Graph

Daily Weather History Graph

Search for Another Location

Airport:

Trip Planner

Search our weather history database for the weather conditions in past years. The results will help you decide how hot, cold, wet, or windy it might be!

Date:

Astronomy

Oct. 25, 2013 Rise Set
Actual Time 6:52 AM CDT 5:59 PM CDT
Civil Twilight 6:27 AM CDT 6:23 PM CDT
Nautical Twilight 5:58 AM CDT 6:52 PM CDT
Astronomical Twilight 5:30 AM CDT 7:20 PM CDT
Moon 11:23 PM CDT (10/25) 12:26 PM CDT (10/25)
Length of Visible Light 11h 56m
Length of Day
11h 06m
Waning Gibbous, 62% of the Moon is Illuminated
Oct 25
Waning Gibbous
Oct 26
Last Quarter
Nov 3
New
Nov 9
First Quarter
Nov 17
Full

Hourly Weather History & Observations

Time (CDT) Temp. Windchill Dew Point Humidity Pressure Visibility Wind Dir Wind Speed Gust Speed Precip Events Conditions
12:53 AM 50.0 °F - 48.0 °F 93% 30.22 in 10.0 mi NNW 4.6 mph - N/A   Clear
1:53 AM 52.0 °F - 48.0 °F 86% 30.23 in 10.0 mi NNW 3.5 mph - N/A   Clear
2:53 AM 52.0 °F - 48.0 °F 86% 30.23 in 10.0 mi NNW 5.8 mph - N/A   Clear
3:53 AM 50.0 °F - 46.9 °F 89% 30.25 in 10.0 mi Calm Calm - N/A   Clear
4:53 AM 50.0 °F - 45.0 °F 83% 30.29 in 10.0 mi NNE 4.6 mph - N/A   Clear
5:53 AM 48.9 °F - 43.0 °F 80% 30.32 in 10.0 mi North 4.6 mph - N/A   Clear
6:53 AM 48.0 °F - 42.1 °F 80% 30.35 in 10.0 mi NNE 8.1 mph - N/A   Clear
7:53 AM 50.0 °F - 42.1 °F 74% 30.38 in 10.0 mi NNE 9.2 mph - N/A   Clear
8:53 AM 52.0 °F - 41.0 °F 66% 30.40 in 10.0 mi NNE 11.5 mph 19.6 mph N/A   Clear
9:53 AM 55.0 °F - 41.0 °F 59% 30.41 in 10.0 mi NNE 11.5 mph - N/A   Clear
10:53 AM 57.9 °F - 39.9 °F 51% 30.40 in 10.0 mi North 6.9 mph - N/A   Clear
11:53 AM 60.1 °F - 36.0 °F 41% 30.39 in 10.0 mi NE 10.4 mph - N/A   Clear
12:53 PM 62.1 °F - 32.0 °F 32% 30.35 in 10.0 mi North 11.5 mph 16.1 mph N/A   Clear
1:53 PM 64.0 °F - 27.0 °F 25% 30.32 in 10.0 mi North 9.2 mph - N/A   Clear
2:53 PM 64.9 °F - 27.0 °F 24% 30.30 in 10.0 mi North 8.1 mph 17.3 mph N/A   Clear
3:53 PM 64.9 °F - 28.9 °F 26% 30.31 in 10.0 mi North 10.4 mph 17.3 mph N/A   Clear
4:53 PM 63.0 °F - 26.1 °F 25% 30.31 in 10.0 mi NNW 9.2 mph - N/A   Clear
5:53 PM 57.0 °F - 30.9 °F 37% 30.31 in 10.0 mi North 5.8 mph - N/A   Clear
6:53 PM 52.0 °F - 32.0 °F 47% 30.33 in 10.0 mi North 6.9 mph - N/A   Clear
7:53 PM 48.0 °F - 34.0 °F 58% 30.34 in 10.0 mi North 4.6 mph - N/A   Clear
8:53 PM 48.0 °F - 34.0 °F 58% 30.35 in 10.0 mi North 3.5 mph - N/A   Clear
9:53 PM 46.0 °F 43.9 °F 35.1 °F 66% 30.37 in 10.0 mi North 4.6 mph - N/A   Clear
10:53 PM 44.1 °F 41.5 °F 34.0 °F 68% 30.37 in 10.0 mi North 4.6 mph - N/A   Clear
11:53 PM 43.0 °F 39.5 °F 34.0 °F 71% 30.35 in 10.0 mi NNE 5.8 mph - N/A   Clear